Location: Park Creek Village Mobile Home Park
(38.2885°N, 122.4714°W)
Time: 14:30:39
(UTC+00:00)

Helios 1A Rocket - Pass Details

Date: 14 December 2019
Orbit: 563 x 587 km, 98.3° (Epoch: 20 January)

Event Time Altitude Azimuth Distance (km) Brightness Sun altitude
Rises 13:26:31 0° 19° (NNE) 2,766 6.5 -21.3°
Reaches altitude 10° 13:28:44 10° 26° (NNE) 1,864 5.7 -20.9°
Maximum altitude 13:32:36 45° 100° (E) 778 4.0 -20.1°
Drops below altitude 10° 13:36:27 10° 173° (S) 1,851 5.8 -19.4°
Sets 13:38:38 0° 180° (S) 2,744 6.6 -19.0°
